Miscellaneous Local Product
Issued by NWS Hastings, NE

Home | Current Version | Previous Version | Graphics & Text | Print | Product List | Glossary On
Versions: 1 2 3 4 5 6 7 8 9 10 11 12 13 14 15 16 17 18 19 20 21 22 23 24 25 26 27 28 29 30 31 32 33 34 35 36 37 38 39 40 41 42 43 44 45 46 47 48 49 50
000
AXUS43 KGID 070602
MISGRI

GID CWA HOURLY WEATHER ROUNDUP
NATIONAL WEATHER SERVICE HASTINGS NE
100 AM CDT TUE JUL 07 2015

NOTE: "FAIR" INDICATES FEW OR NO CLOUDS BELOW 12,000 FEET WITH NO
SIGNIFICANT WEATHER AND/OR OBSTRUCTIONS TO VISIBILITY.

...SOUTH CENTRAL NEBRASKA...

CITY           SKY/WX    TMP DP  RH WIND       PRES   REMARKS
GRAND ISLAND   CLEAR     59  55  87 N9        30.14S FOG
HASTINGS       CLEAR     62  55  77 N9        30.13F HAZE
KEARNEY        CLEAR     59  52  77 N10       30.15S
ORD            CLEAR     55  52  89 N6        30.16R FOG
YORK           CLEAR     63  59  88 N12       30.12R FOG
AURORA         CLEAR     61  59  94 N8        30.13S FOG
LEXINGTON      CLEAR     58  54  88 CALM      30.18S
HOLDREGE       CLEAR     57  54  88 N6        30.16R
HEBRON         CLEAR     65  58  77 N9        30.09R HAZE

...NEBRASKA PANHANDLE...

CITY           SKY/WX    TMP DP  RH WIND       PRES   REMARKS
CHADRON        CLOUDY    60  57  89 CALM      30.21F
ALLIANCE       CLOUDY    60  56  86 SE6       30.24S
SCOTTSBLUFF    CLOUDY    64  57  78 SE5       30.24F HAZE
SIDNEY         CLOUDY    62  54  74 SE5       30.27F HAZE

...WESTERN AND NORTH CENTRAL NEBRASKA...

CITY           SKY/WX    TMP DP  RH WIND       PRES   REMARKS
VALENTINE      PTCLDY    57  55  93 CALM      30.20F
AINSWORTH      CLEAR     60  56  88 CALM      30.20F
ONEILL         CLEAR     56  55  94 N3        30.17S
BROKEN BOW     CLEAR     58  54  86 N3        30.19R FOG
IMPERIAL       CLOUDY    62  53  72 CALM      30.23R
NORTH PLATTE   CLEAR     57  53  86 NE6       30.20S
MCCOOK         PTCLDY    59  54  83 N7        30.18S HAZE

...EASTERN NEBRASKA...

CITY           SKY/WX    TMP DP  RH WIND       PRES   REMARKS
NORFOLK        CLEAR     60  56  86 N6        30.14S FOG
SO SIOUX CITY  CLEAR     59  53  80 N5        30.13R
TEKAMAH        CLEAR     60  55  83 N8        30.10R
ALBION         CLEAR     58  54  84 N3        30.15S
OMAHA EPPLEY   PTCLDY    64  56  75 N13       30.07R
OFFUTT AFB       N/A     66  55  69 N9G20     30.06R SMOKE
MILLARD        CLEAR     67  56  67 N5        30.07R
LINCOLN        MOCLDY    63  59  87 N12       30.09R FOG
NEBRASKA CITY  PTCLDY    67  58  75 N13       30.04S HAZE
BEATRICE       CLEAR     67  60  78 N14       30.07R HAZE
FALLS CITY     CLOUDY    68  61  78 N8        30.01R HAZE

...NORTHERN KANSAS...

CITY           SKY/WX    TMP DP  RH WIND       PRES   REMARKS
GOODLAND       CLOUDY    63  53  70 NE9       30.23R
HILL CITY      CLOUDY    65  56  72 N9        30.15R HAZE
NORTON         CLEAR     61  48  63 N7        30.16R
PHILLIPSBURG   CLEAR     68  57  68 N7        30.14R HAZE
SMITH CENTER   CLEAR     64  55  72 N10       30.13R HAZE
HAYS           CLOUDY    70  54  56 NE17      30.10S
RUSSELL        CLOUDY    69  61  75 N12       30.08R HAZE
CONCORDIA      CLOUDY    67  59  75 N13G21    30.08R HAZE
SALINA         CLOUDY    72  64  76 N13       30.04R
TOPEKA         HVY RAIN  65  64  97 N18G25    29.99R FOG



USA.gov is the U.S. government's official web portal to all federal, state and local government web resources and services.